RADUGA 25 1 20499U 90016A 21063.24583455 -.00000281 00000-0 00000-0 0 9990 2 20499 14.2606 349.6035 0003529 78.1926 107.7584 1.00365858113549 SL-12 R/B(2) 1 20502U 90016D 21063.65025663 -.00000233 00000-0 00000-0 0 9999 2 20502 14.3636 350.0324 0035821 189.7178 11.3920 1.00040178113452